Time,TemperatureF,DewpointF,PressureIn,WindDirection,WindDirectionDegrees,WindSpeedMPH,WindSpeedGustMPH,Humidity,HourlyPrecipIn,Conditions,Clouds,dailyrainin,SoftwareType,DateUTC
2013-01-18 00:04:00,9.0,-99.9,-100.00,West,270,8.0,10.0,-999,-99.99,,,-99.99,,2013-01-18 05:04:00,
2013-01-18 00:12:00,9.0,-99.9,-100.00,West,270,8.0,10.0,-999,-99.99,,,-99.99,,2013-01-18 05:12:00,
2013-01-18 00:22:00,9.0,-99.9,-100.00,West,270,8.0,10.0,-999,-99.99,,,-99.99,,2013-01-18 05:22:00,
2013-01-18 00:33:00,9.0,-99.9,-100.00,West,280,9.0,11.0,-999,-99.99,,,-99.99,,2013-01-18 05:33:00,
2013-01-18 00:43:00,9.0,-99.9,-100.00,West,280,8.0,13.0,-999,-99.99,,,-99.99,,2013-01-18 05:43:00,
2013-01-18 00:53:00,9.0,-99.9,-100.00,West,280,8.0,13.0,-999,-99.99,,,-99.99,,2013-01-18 05:53:00,
2013-01-18 01:03:00,10.0,-99.9,-100.00,West,280,8.0,14.0,-999,-99.99,,,-99.99,,2013-01-18 06:03:00,
2013-01-18 01:12:00,10.0,-99.9,-100.00,West,270,8.0,13.0,-999,-99.99,,,-99.99,,2013-01-18 06:12:00,
2013-01-18 01:23:00,10.0,-99.9,-100.00,West,270,8.0,13.0,-999,-99.99,,,-99.99,,2013-01-18 06:23:00,
2013-01-18 01:33:00,10.0,-99.9,-100.00,West,280,9.0,13.0,-999,-99.99,,,-99.99,,2013-01-18 06:33:00,
2013-01-18 01:43:00,10.0,-99.9,-100.00,West,280,8.0,11.0,-999,-99.99,,,-99.99,,2013-01-18 06:43:00,
2013-01-18 01:53:00,10.0,-99.9,-100.00,West,280,8.0,11.0,-999,-99.99,,,-99.99,,2013-01-18 06:53:00,
2013-01-18 02:02:00,10.0,-99.9,-100.00,West,280,9.0,13.0,-999,-99.99,,,-99.99,,2013-01-18 07:02:00,
2013-01-18 02:12:00,10.0,-99.9,-100.00,West,280,8.0,11.0,-999,-99.99,,,-99.99,,2013-01-18 07:12:00,
2013-01-18 02:22:00,10.0,-99.9,-100.00,West,280,8.0,11.0,-999,-99.99,,,-99.99,,2013-01-18 07:22:00,
2013-01-18 02:33:00,10.0,-99.9,-100.00,West,280,7.0,10.0,-999,-99.99,,,-99.99,,2013-01-18 07:33:00,
2013-01-18 02:43:00,10.0,-99.9,-100.00,West,280,7.0,10.0,-999,-99.99,,,-99.99,,2013-01-18 07:43:00,
2013-01-18 02:52:00,9.0,-99.9,-100.00,West,280,7.0,10.0,-999,-99.99,,,-99.99,,2013-01-18 07:52:00,
2013-01-18 03:02:00,9.0,-99.9,-100.00,West,280,9.0,13.0,-999,-99.99,,,-99.99,,2013-01-18 08:02:00,
2013-01-18 03:12:00,9.0,-99.9,-100.00,West,280,8.0,9.0,-999,-99.99,,,-99.99,,2013-01-18 08:12:00,
2013-01-18 03:22:00,9.0,-99.9,-100.00,West,280,8.0,9.0,-999,-99.99,,,-99.99,,2013-01-18 08:22:00,
2013-01-18 03:33:00,9.0,-99.9,-100.00,West,270,8.0,11.0,-999,-99.99,,,-99.99,,2013-01-18 08:33:00,
2013-01-18 03:43:00,10.0,-99.9,-100.00,West,280,7.0,9.0,-999,-99.99,,,-99.99,,2013-01-18 08:43:00,
2013-01-18 03:53:00,10.0,-99.9,-100.00,West,280,7.0,9.0,-999,-99.99,,,-99.99,,2013-01-18 08:53:00,
2013-01-18 04:00:00,10.0,-99.9,-100.00,West,270,8.0,11.0,-999,-99.99,,,-99.99,,2013-01-18 09:00:00,
2013-01-18 04:03:00,10.0,-99.9,-100.00,West,270,8.0,10.0,-999,-99.99,,,-99.99,,2013-01-18 09:03:00,
2013-01-18 04:12:00,10.0,-99.9,-100.00,West,270,7.0,9.0,-999,-99.99,,,-99.99,,2013-01-18 09:12:00,
2013-01-18 04:22:00,10.0,-99.9,-100.00,West,270,7.0,9.0,-999,-99.99,,,-99.99,,2013-01-18 09:22:00,
2013-01-18 04:33:00,10.0,-99.9,-100.00,West,270,8.0,11.0,-999,-99.99,,,-99.99,,2013-01-18 09:33:00,
2013-01-18 04:43:00,10.0,-99.9,-100.00,West,270,8.0,11.0,-999,-99.99,,,-99.99,,2013-01-18 09:43:00,
2013-01-18 04:53:00,10.0,-99.9,-100.00,West,270,8.0,11.0,-999,-99.99,,,-99.99,,2013-01-18 09:53:00,
2013-01-18 05:12:00,10.0,-99.9,-100.00,West,270,10.0,14.0,-999,-99.99,,,-99.99,,2013-01-18 10:12:00,
2013-01-18 05:22:00,10.0,-99.9,-100.00,West,270,10.0,14.0,-999,-99.99,,,-99.99,,2013-01-18 10:22:00,
2013-01-18 05:33:00,10.0,-99.9,-100.00,West,280,7.0,11.0,-999,-99.99,,,-99.99,,2013-01-18 10:33:00,
2013-01-18 05:43:00,9.0,-99.9,-100.00,West,270,7.0,9.0,-999,-99.99,,,-99.99,,2013-01-18 10:43:00,
2013-01-18 05:53:00,9.0,-99.9,-100.00,West,270,7.0,9.0,-999,-99.99,,,-99.99,,2013-01-18 10:53:00,
2013-01-18 06:03:00,9.0,-99.9,-100.00,West,260,8.0,10.0,-999,-99.99,,,-99.99,,2013-01-18 11:03:00,
2013-01-18 06:12:00,9.0,-99.9,-100.00,West,260,9.0,11.0,-999,-99.99,,,-99.99,,2013-01-18 11:12:00,
2013-01-18 06:23:00,9.0,-99.9,-100.00,West,260,9.0,11.0,-999,-99.99,,,-99.99,,2013-01-18 11:23:00,
2013-01-18 06:33:00,9.0,-99.9,-100.00,West,260,9.0,11.0,-999,-99.99,,,-99.99,,2013-01-18 11:33:00,
2013-01-18 06:43:00,9.0,-99.9,-100.00,West,260,9.0,11.0,-999,-99.99,,,-99.99,,2013-01-18 11:43:00,
2013-01-18 07:03:00,8.0,-99.9,-100.00,West,260,8.0,13.0,-999,-99.99,,,-99.99,,2013-01-18 12:03:00,
2013-01-18 07:12:00,8.0,-99.9,-100.00,West,260,11.0,14.0,-999,-99.99,,,-99.99,,2013-01-18 12:12:00,
2013-01-18 07:23:00,8.0,-99.9,-100.00,West,260,11.0,14.0,-999,-99.99,,,-99.99,,2013-01-18 12:23:00,
2013-01-18 07:33:00,9.0,-99.9,-100.00,WSW,250,13.0,16.0,-999,-99.99,,,-99.99,,2013-01-18 12:33:00,
2013-01-18 07:43:00,9.0,-99.9,-100.00,WSW,250,13.0,16.0,-999,-99.99,,,-99.99,,2013-01-18 12:43:00,
2013-01-18 07:53:00,9.0,-99.9,-100.00,WSW,250,13.0,16.0,-999,-99.99,,,-99.99,,2013-01-18 12:53:00,
2013-01-18 08:03:00,9.0,-99.9,-100.00,West,260,11.0,14.0,-999,-99.99,,,-99.99,,2013-01-18 13:03:00,
2013-01-18 08:12:00,9.0,-99.9,-100.00,West,260,8.0,11.0,-999,-99.99,,,-99.99,,2013-01-18 13:12:00,
2013-01-18 08:23:00,9.0,-99.9,-100.00,West,260,8.0,11.0,-999,-99.99,,,-99.99,,2013-01-18 13:23:00,
2013-01-18 08:34:00,9.0,-99.9,-100.00,WSW,240,9.0,11.0,-999,-99.99,,,-99.99,,2013-01-18 13:34:00,
2013-01-18 08:43:00,9.0,-99.9,-100.00,WSW,250,11.0,14.0,-999,-99.99,,,-99.99,,2013-01-18 13:43:00,
2013-01-18 08:53:00,9.0,-99.9,-100.00,WSW,250,11.0,14.0,-999,-99.99,,,-99.99,,2013-01-18 13:53:00,
2013-01-18 09:03:00,9.0,-99.9,-100.00,West,260,11.0,15.0,-999,-99.99,,,-99.99,,2013-01-18 14:03:00,
2013-01-18 09:13:00,9.0,-99.9,-100.00,WSW,250,13.0,15.0,-999,-99.99,,,-99.99,,2013-01-18 14:13:00,
2013-01-18 09:23:00,9.0,-99.9,-100.00,WSW,250,13.0,15.0,-999,-99.99,,,-99.99,,2013-01-18 14:23:00,
2013-01-18 09:34:00,10.0,-99.9,-100.00,West,260,10.0,14.0,-999,-99.99,,,-99.99,,2013-01-18 14:34:00,
2013-01-18 09:43:00,11.0,-99.9,-100.00,WSW,250,13.0,16.0,-999,-99.99,,,-99.99,,2013-01-18 14:43:00,
2013-01-18 09:53:00,11.0,-99.9,-100.00,WSW,250,13.0,16.0,-999,-99.99,,,-99.99,,2013-01-18 14:53:00,
2013-01-18 10:03:00,13.0,-99.9,-100.00,WSW,240,14.0,16.0,-999,-99.99,,,-99.99,,2013-01-18 15:03:00,
2013-01-18 10:13:00,13.0,-99.9,-100.00,WSW,240,14.0,18.0,-999,-99.99,,,-99.99,,2013-01-18 15:13:00,
2013-01-18 10:23:00,13.0,-99.9,-100.00,WSW,240,14.0,18.0,-999,-99.99,,,-99.99,,2013-01-18 15:23:00,
2013-01-18 10:34:00,14.0,-99.9,-100.00,WSW,240,15.0,17.0,-999,-99.99,,,-99.99,,2013-01-18 15:34:00,
2013-01-18 10:44:00,14.0,-99.9,-100.00,WSW,240,15.0,17.0,-999,-99.99,,,-99.99,,2013-01-18 15:44:00,
2013-01-18 10:54:00,14.0,-99.9,-100.00,WSW,250,13.0,15.0,-999,-99.99,,,-99.99,,2013-01-18 15:54:00,
2013-01-18 11:03:00,15.0,-99.9,-100.00,West,260,13.0,15.0,-999,-99.99,,,-99.99,,2013-01-18 16:03:00,
2013-01-18 11:13:00,15.0,-99.9,-100.00,West,260,15.0,21.0,-999,-99.99,,,-99.99,,2013-01-18 16:13:00,
2013-01-18 11:23:00,15.0,-99.9,-100.00,West,260,15.0,21.0,-999,-99.99,,,-99.99,,2013-01-18 16:23:00,
2013-01-18 11:33:00,16.0,-99.9,-100.00,WSW,250,14.0,18.0,-999,-99.99,,,-99.99,,2013-01-18 16:33:00,
2013-01-18 11:43:00,16.0,-99.9,-100.00,WSW,250,14.0,18.0,-999,-99.99,,,-99.99,,2013-01-18 16:43:00,
2013-01-18 11:53:00,16.0,-99.9,-100.00,WSW,240,17.0,21.0,-999,-99.99,,,-99.99,,2013-01-18 16:53:00,
2013-01-18 12:03:00,16.0,-99.9,-100.00,WSW,240,14.0,17.0,-999,-99.99,,,-99.99,,2013-01-18 17:03:00,
2013-01-18 12:13:00,16.0,-99.9,-100.00,WSW,240,14.0,18.0,-999,-99.99,,,-99.99,,2013-01-18 17:13:00,
2013-01-18 12:23:00,16.0,-99.9,-100.00,WSW,240,14.0,18.0,-999,-99.99,,,-99.99,,2013-01-18 17:23:00,
2013-01-18 12:34:00,17.0,-99.9,-100.00,SW,230,14.0,17.0,-999,-99.99,,,-99.99,,2013-01-18 17:34:00,
2013-01-18 12:43:00,17.0,-99.9,-100.00,SW,220,11.0,14.0,-999,-99.99,,,-99.99,,2013-01-18 17:43:00,
2013-01-18 12:53:00,17.0,-99.9,-100.00,SSW,210,18.0,21.0,-999,-99.99,,,-99.99,,2013-01-18 17:53:00,
2013-01-18 13:04:00,17.0,-99.9,-100.00,SSW,210,18.0,21.0,-999,-99.99,,,-99.99,,2013-01-18 18:04:00,
2013-01-18 13:13:00,17.0,-99.9,-100.00,SSW,210,18.0,22.0,-999,-99.99,,,-99.99,,2013-01-18 18:13:00,
2013-01-18 13:24:00,17.0,-99.9,-100.00,SSW,210,18.0,22.0,-999,-99.99,,,-99.99,,2013-01-18 18:24:00,
2013-01-18 13:34:00,17.0,-99.9,-100.00,SSW,200,17.0,21.0,-999,-99.99,,,-99.99,,2013-01-18 18:34:00,
2013-01-18 13:44:00,17.0,-99.9,-100.00,SSW,200,15.0,18.0,-999,-99.99,,,-99.99,,2013-01-18 18:44:00,
2013-01-18 13:53:00,17.0,-99.9,-100.00,SSW,200,15.0,18.0,-999,-99.99,,,-99.99,,2013-01-18 18:53:00,
2013-01-18 14:03:00,17.0,-99.9,-100.00,SSW,200,14.0,16.0,-999,-99.99,,,-99.99,,2013-01-18 19:03:00,
2013-01-18 14:13:00,17.0,-99.9,-100.00,South,180,14.0,16.0,-999,-99.99,,,-99.99,,2013-01-18 19:13:00,
2013-01-18 14:23:00,17.0,-99.9,-100.00,South,180,14.0,16.0,-999,-99.99,,,-99.99,,2013-01-18 19:23:00,
2013-01-18 14:33:00,17.0,-99.9,-100.00,South,180,13.0,15.0,-999,-99.99,,,-99.99,,2013-01-18 19:33:00,
2013-01-18 14:43:00,18.0,-99.9,-100.00,South,190,13.0,16.0,-999,-99.99,,,-99.99,,2013-01-18 19:43:00,
2013-01-18 14:53:00,18.0,-99.9,-100.00,South,170,14.0,16.0,-999,-99.99,,,-99.99,,2013-01-18 19:53:00,
2013-01-18 15:03:00,18.0,-99.9,-100.00,South,170,14.0,16.0,-999,-99.99,,,-99.99,,2013-01-18 20:03:00,
2013-01-18 15:13:00,18.0,-99.9,-100.00,South,180,14.0,16.0,-999,-99.99,,,-99.99,,2013-01-18 20:13:00,
2013-01-18 15:23:00,18.0,-99.9,-100.00,South,180,14.0,16.0,-999,-99.99,,,-99.99,,2013-01-18 20:23:00,
2013-01-18 15:34:00,18.0,-99.9,-100.00,SSE,160,15.0,16.0,-999,-99.99,,,-99.99,,2013-01-18 20:34:00,
2013-01-18 15:43:00,19.0,-99.9,-100.00,SSE,160,15.0,17.0,-999,-99.99,,,-99.99,,2013-01-18 20:43:00,
2013-01-18 15:53:00,19.0,-99.9,-100.00,SSE,160,15.0,17.0,-999,-99.99,,,-99.99,,2013-01-18 20:53:00,
2013-01-18 16:03:00,20.0,-99.9,-100.00,South,170,16.0,21.0,-999,-99.99,,,-99.99,,2013-01-18 21:03:00,
2013-01-18 16:13:00,20.0,-99.9,-100.00,SSE,160,16.0,18.0,-999,-99.99,,,-99.99,,2013-01-18 21:13:00,
2013-01-18 16:23:00,20.0,-99.9,-100.00,SSE,160,16.0,18.0,-999,-99.99,,,-99.99,,2013-01-18 21:23:00,
2013-01-18 16:33:00,21.0,-99.9,-100.00,South,170,17.0,20.0,-999,-99.99,,,-99.99,,2013-01-18 21:33:00,
2013-01-18 16:43:00,21.0,-99.9,-100.00,South,170,17.0,20.0,-999,-99.99,,,-99.99,,2013-01-18 21:43:00,
2013-01-18 16:53:00,21.0,-99.9,-100.00,South,170,15.0,17.0,-999,-99.99,,,-99.99,,2013-01-18 21:53:00,
2013-01-18 17:03:00,21.0,-99.9,-100.00,South,170,15.0,17.0,-999,-99.99,,,-99.99,,2013-01-18 22:03:00,
2013-01-18 17:12:00,22.0,-99.9,-100.00,South,170,15.0,16.0,-999,-99.99,,,-99.99,,2013-01-18 22:12:00,
2013-01-18 17:23:00,22.0,-99.9,-100.00,South,170,15.0,16.0,-999,-99.99,,,-99.99,,2013-01-18 22:23:00,
2013-01-18 17:33:00,22.0,-99.9,-100.00,South,170,17.0,20.0,-999,-99.99,,,-99.99,,2013-01-18 22:33:00,
2013-01-18 17:43:00,23.0,-99.9,-100.00,South,170,16.0,21.0,-999,-99.99,,,-99.99,,2013-01-18 22:43:00,
2013-01-18 17:53:00,23.0,-99.9,-100.00,South,170,16.0,21.0,-999,-99.99,,,-99.99,,2013-01-18 22:53:00,
2013-01-18 18:03:00,24.0,-99.9,-100.00,South,170,17.0,20.0,-999,-99.99,,,-99.99,,2013-01-18 23:03:00,
2013-01-18 18:12:00,24.0,-99.9,-100.00,South,170,17.0,20.0,-999,-99.99,,,-99.99,,2013-01-18 23:12:00,
2013-01-18 18:23:00,24.0,-99.9,-100.00,South,180,20.0,22.0,-999,-99.99,,,-99.99,,2013-01-18 23:23:00,
2013-01-18 18:33:00,25.0,-99.9,-100.00,South,170,20.0,22.0,-999,-99.99,,,-99.99,,2013-01-18 23:33:00,
2013-01-18 18:43:00,25.0,-99.9,-100.00,South,180,18.0,22.0,-999,-99.99,,,-99.99,,2013-01-18 23:43:00,
2013-01-18 18:53:00,25.0,-99.9,-100.00,South,180,18.0,22.0,-999,-99.99,,,-99.99,,2013-01-18 23:53:00,
2013-01-18 19:03:00,26.0,-99.9,-100.00,South,180,18.0,22.0,-999,-99.99,,,-99.99,,2013-01-19 00:03:00,
2013-01-18 19:13:00,26.0,-99.9,-100.00,South,180,17.0,18.0,-999,-99.99,,,-99.99,,2013-01-19 00:13:00,
2013-01-18 19:23:00,26.0,-99.9,-100.00,South,180,17.0,18.0,-999,-99.99,,,-99.99,,2013-01-19 00:23:00,
2013-01-18 19:33:00,26.0,-99.9,-100.00,South,190,16.0,17.0,-999,-99.99,,,-99.99,,2013-01-19 00:33:00,
2013-01-18 19:43:00,27.0,-99.9,-100.00,SSW,200,15.0,16.0,-999,-99.99,,,-99.99,,2013-01-19 00:43:00,
2013-01-18 19:53:00,27.0,-99.9,-100.00,SSW,200,16.0,18.0,-999,-99.99,,,-99.99,,2013-01-19 00:53:00,
2013-01-18 20:03:00,27.0,-99.9,-100.00,SSW,200,16.0,18.0,-999,-99.99,,,-99.99,,2013-01-19 01:03:00,
2013-01-18 20:13:00,28.0,-99.9,-100.00,SSW,200,17.0,21.0,-999,-99.99,,,-99.99,,2013-01-19 01:13:00,
2013-01-18 20:23:00,28.0,-99.9,-100.00,SSW,200,17.0,21.0,-999,-99.99,,,-99.99,,2013-01-19 01:23:00,
2013-01-18 20:33:00,28.0,-99.9,-100.00,SSW,200,17.0,20.0,-999,-99.99,,,-99.99,,2013-01-19 01:33:00,
2013-01-18 20:43:00,28.0,-99.9,-100.00,SSW,200,17.0,20.0,-999,-99.99,,,-99.99,,2013-01-19 01:43:00,
2013-01-18 20:53:00,28.0,-99.9,-100.00,SSW,210,17.0,20.0,-999,-99.99,,,-99.99,,2013-01-19 01:53:00,
2013-01-18 21:03:00,29.0,-99.9,-100.00,SSW,210,17.0,21.0,-999,-99.99,,,-99.99,,2013-01-19 02:03:00,
2013-01-18 21:12:00,29.0,-99.9,-100.00,SSW,210,16.0,18.0,-999,-99.99,,,-99.99,,2013-01-19 02:12:00,
2013-01-18 21:23:00,29.0,-99.9,-100.00,SSW,210,16.0,18.0,-999,-99.99,,,-99.99,,2013-01-19 02:23:00,
2013-01-18 21:33:00,29.0,-99.9,-100.00,SSW,210,15.0,16.0,-999,-99.99,,,-99.99,,2013-01-19 02:33:00,
2013-01-18 21:43:00,30.0,-99.9,-100.00,SSW,210,14.0,17.0,-999,-99.99,,,-99.99,,2013-01-19 02:43:00,
2013-01-18 21:53:00,30.0,-99.9,-100.00,SSW,210,14.0,17.0,-999,-99.99,,,-99.99,,2013-01-19 02:53:00,
2013-01-18 22:03:00,30.0,-99.9,-100.00,SSW,210,13.0,15.0,-999,-99.99,,,-99.99,,2013-01-19 03:03:00,
2013-01-18 22:12:00,30.0,-99.9,-100.00,SSW,210,11.0,13.0,-999,-99.99,,,-99.99,,2013-01-19 03:12:00,
2013-01-18 22:23:00,30.0,-99.9,-100.00,SSW,210,11.0,13.0,-999,-99.99,,,-99.99,,2013-01-19 03:23:00,
2013-01-18 22:33:00,31.0,-99.9,-100.00,SSW,210,10.0,13.0,-999,-99.99,,,-99.99,,2013-01-19 03:33:00,
2013-01-18 22:44:00,31.0,-99.9,-100.00,SW,220,13.0,15.0,-999,-99.99,,,-99.99,,2013-01-19 03:44:00,
2013-01-18 22:53:00,31.0,-99.9,-100.00,SW,220,13.0,15.0,-999,-99.99,,,-99.99,,2013-01-19 03:53:00,
2013-01-18 23:03:00,32.0,-99.9,-100.00,SW,220,13.0,15.0,-999,-99.99,,,-99.99,,2013-01-19 04:03:00,
2013-01-18 23:12:00,33.0,-99.9,-100.00,SW,230,13.0,15.0,-999,-99.99,,,-99.99,,2013-01-19 04:12:00,
2013-01-18 23:22:00,33.0,-99.9,-100.00,SW,230,13.0,15.0,-999,-99.99,,,-99.99,,2013-01-19 04:22:00,
2013-01-18 23:33:00,33.0,-99.9,-100.00,SW,230,14.0,17.0,-999,-99.99,,,-99.99,,2013-01-19 04:33:00,
2013-01-18 23:43:00,33.0,-99.9,-100.00,SW,230,14.0,17.0,-999,-99.99,,,-99.99,,2013-01-19 04:43:00,
2013-01-18 23:53:00,33.0,-99.9,-100.00,SW,230,14.0,17.0,-999,-99.99,,,-99.99,,2013-01-19 04:53:00,